Location: Fort Wayne
(41.1310°N, 85.1290°W)
Time: 03:04:21
(UTC-04:00)

BREEZE-M DEB (TANK) - Visible Passes

Search period start: 23 May 2018 00:00
Search period end: 02 June 2018 00:00
Orbit: 283 x 13197 km, 49.6° (Epoch: 21 May)

Date Brightness Start Highest point End Pass type
(mag) Time Alt. Az. Time Alt. Az. Time Alt. Az.
23 May 8.7 20:06:07 10° NW 21:08:56 23° WNW 21:52:30 10° WSW visible
24 May 9.5 21:40:08 10° WNW 21:56:40 11° WNW 22:12:13 10° WNW visible
26 May 8.2 05:09:22 10° E 05:17:19 11° ENE 05:27:57 10° ENE visible
28 May 9.5 21:01:04 10° NW 21:24:51 12° WNW 21:47:02 10° W visible
31 May 7.3 05:23:07 10° SE 05:38:32 24° E 06:20:11 10° NE visible
01 Jun 9.6 20:23:52 10° NW 20:52:56 13° WNW 21:20:13 10° W visible
